Showing default

SPACEEYE-T1, 63229

Orbit data source: Space-Track

SPACEEYE-T1, 63229 is a payload satellite owned by SatRec Initiative (KR) in SSO that was launched on Sat, 15 Mar 2025 UTC via an FALCON 9 launch vehicle from the Air Force Western Test Range (AFWTR). Payload-class satellites include a variety of spacecraft equipped with specific instruments for various scientific and technological missions. These include communications satellites like Starlink; space stations such as the ISS; scientific satellites like the Hubble; Earth observation satellites from companies like Planet Labs, Umbra, and HawkEye 360; GPS; miniature CubeSats for education and research; and military/defense satellites.

Loading next visibility...
Identifier
63229, 2025-052V
Orbit
SSO
Country
Flag of KRKR / SKOR
Related business
Manufacturer
SatRec Initiative
Mission
Operational Commercial Imaging
Bus & Motor
SPACEEYE-T, Unknown motor
Mass
700 kg wet, 700 kg dry
Launch date (UTC)
2025-03-15 (1 year ago)
Launch vehicle
FALCON 9
Launch site
Air Force Western Test Range (AFWTR)
Object type
Payload
Rocket body
Debris
Shape & HBR
Cyl + 2 Pan, 2.7 m
Radar Cross Section
7.637 m², Large (>1 m²)

Expand to show TLE details & history
Last TLE update: 7 hours ago

TLE from 7 hours ago
0 SPACEEYE-T1
1 63229U 25052V   26175.16335511  .00004020  00000-0  17625-3 0  9992
2 63229  97.3949  67.5972 0006397 117.1093 243.0796 15.22535188 70905
Epoch: 2026-06-24T03:55Z
TLE epoch observation values (Epoch: 2026-06-24T03:55:13.881Z)
Latitude
-0.0001°
Longitude
96.46486°
Altitude
503.285 km
Speed
7.612 km/s
True Right ascension
04h 30m 23s
True Declination
0° 00' 00"
Sunlit
Object was in daylight at epoch
Visualization orbit readout
Latitude
Unknown
Longitude
Unknown
Altitude
Unknown
Speed
Unknown
Apparent Right ascension
Unknown
Apparent Declination
Unknown
Sunlit
N/A
Visualization observer readout
Local Sidereal Time
21:55:05
Azimuth
Unknown
Elevation
Unknown
Doppler factor
Unknown
Orbital elements
Apogee altitude
499.556 km
Perigee altitude
490.762 km
Semi-major axis
6,873.296 km
Eccentricity
0.00064
Inclination
97.3949°
RAAN
67.5972°
Arg. of periapsis
117.1093°
True anomaly
243.01426°
Mean anomaly
243.0796°
Eccentric anomaly
243.04693°
Mean motion
3.80887 °/min
Orbital period
94.52 mins
BSTAR
0.00017625
Loading maneuver chart data...
Computing Atmospheric mass density...
Loading historical data...
Loading historical data...
Loading historical data...
Loading historical data...
Loading historical data...
Loading historical data...
Loading historical data...

Documentation

Showing up to 5 results
|